Darstellungsparameter: Aktuell verwendete Einstellungen:
Skalierung der Graphiken ... ?
xyx+y,   Skalierungsfaktor:      Skalierung: Modus: x, Faktor: 1
Darstellungszeitraum ... ?
Vom - - bis: - -   Zeitraum: 19.10.2020 - 19.10.2020
Min/Max/Avg-Anzeige ... ?
Zeige MMA aktuell
Zeige MMA Monat
Zeige MMA alles
Zeige --A aktuell
Zeige --A Monat
Zeige --A alles
Keine MMA-Anzeige
MMA:
Minimum Maximum Average (ber die Originaldaten)
MMA-Basis: 19.10.2020 - 19.10.2020
Quicknavigation für Darstellung... ?
Tage:      1T, 2T, 3T, 5T -1T -2T -3T -5T +1T +2T +3T +5T
Wochen: 1W, 2W, 3W -1W -2W -3W +1W +2W +3W
Monate: 1M, 3M, 6M -1M -3M -6M +1M +3M +6M
Jahre:    1J, 3J, 5J, 10J -1J -3J -5J -10J +1J +3J +5J +10J
Nutze für die Darstellung ... ?
Originaldaten oder Mittelwerte auf ...
Stundenbasis Tagesbasis Wochenbasis
Monatsbasis Jahresbasis      Datenbasis: Original-Daten
Darstellen als:
Statistik (Auto) Statistik J:M      Darstellung:
Zur Graphik,    zurück zur Übersicht aller Sensoren.
 
Tabellarische Datenbersicht: ?
 
Sensor: Nr:Datum:Temp:Abs-Feuchte:Windchill:Wind:
Aussen-T/F 1 19-10-2020 00:00:00 9.1 C 8.07 g/m*3 9.1 C 0 km/h
2 19-10-2020 00:05:00 9.1 C 8.07 g/m*3 9.1 C 0 km/h
3 19-10-2020 00:10:00 9 C 8.02 g/m*3 9 C 0 km/h
4 19-10-2020 00:15:00 8.9 C 7.97 g/m*3 8.9 C 0 km/h
5 19-10-2020 00:20:00 8.9 C 7.97 g/m*3 8.9 C 0 km/h
6 19-10-2020 00:25:00 8.9 C 7.97 g/m*3 8.9 C 0 km/h
7 19-10-2020 00:30:00 8.8 C 7.92 g/m*3 8.8 C 1.6 km/h
8 19-10-2020 00:35:00 8.8 C 7.92 g/m*3 8.8 C 0 km/h
9 19-10-2020 00:40:00 8.8 C 8.01 g/m*3 8.8 C 0 km/h
10 19-10-2020 00:45:00 8.8 C 8.01 g/m*3 8.8 C 0 km/h
11 19-10-2020 00:50:00 8.7 C 7.96 g/m*3 8.7 C 0 km/h
12 19-10-2020 00:55:00 8.7 C 7.96 g/m*3 8.7 C 0 km/h
13 19-10-2020 01:00:00 8.7 C 7.96 g/m*3 8.7 C 0 km/h
14 19-10-2020 01:05:00 8.7 C 7.96 g/m*3 8.7 C 0 km/h
15 19-10-2020 01:10:00 8.7 C 7.96 g/m*3 8.7 C 0 km/h
16 19-10-2020 01:15:00 8.6 C 7.91 g/m*3 8.6 C 0 km/h
17 19-10-2020 01:20:00 8.6 C 7.91 g/m*3 8.6 C 0 km/h
18 19-10-2020 01:25:00 8.6 C 7.99 g/m*3 8.6 C 1.6 km/h
19 19-10-2020 01:30:00 8.6 C 7.99 g/m*3 8.6 C 3.2 km/h
20 19-10-2020 01:35:00 8.7 C 8.04 g/m*3 8.7 C 3.2 km/h
21 19-10-2020 01:40:00 8.7 C 7.96 g/m*3 8.7 C 3.2 km/h
22 19-10-2020 01:45:00 8.7 C 7.96 g/m*3 8.7 C 0 km/h
23 19-10-2020 01:50:00 8.7 C 7.96 g/m*3 8.7 C 0 km/h
24 19-10-2020 01:55:00 8.7 C 7.96 g/m*3 8.7 C 0 km/h
25 19-10-2020 02:00:00 8.7 C 7.96 g/m*3 8.7 C 0 km/h
Sensor: Nr:Datum:Temp:Abs-Feuchte:Windchill:Wind:
Aussen-T/F 26 19-10-2020 02:05:00 8.7 C 7.96 g/m*3 8.7 C 0 km/h
27 19-10-2020 02:10:00 8.7 C 7.96 g/m*3 8.7 C 1.6 km/h
28 19-10-2020 02:15:00 8.7 C 7.96 g/m*3 8.7 C 3.2 km/h
29 19-10-2020 02:20:00 8.7 C 7.96 g/m*3 8.7 C 0 km/h
30 19-10-2020 02:25:00 8.7 C 7.96 g/m*3 8.7 C 0 km/h
31 19-10-2020 02:30:00 8.7 C 7.96 g/m*3 8.7 C 0 km/h
32 19-10-2020 02:35:00 8.7 C 7.96 g/m*3 8.7 C 0 km/h
33 19-10-2020 02:40:00 8.6 C 7.91 g/m*3 8.6 C 0 km/h
34 19-10-2020 02:45:00 8.6 C 7.99 g/m*3 8.6 C 0 km/h
35 19-10-2020 02:50:00 8.6 C 7.99 g/m*3 8.6 C 0 km/h
36 19-10-2020 02:55:00 8.5 C 7.94 g/m*3 8.5 C 0 km/h
37 19-10-2020 03:00:00 8.5 C 7.94 g/m*3 8.5 C 0 km/h
38 19-10-2020 03:05:00 8.4 C 7.89 g/m*3 8.4 C 0 km/h
39 19-10-2020 03:10:00 8.4 C 7.89 g/m*3 8.4 C 0 km/h
40 19-10-2020 03:15:00 8.4 C 7.89 g/m*3 8.4 C 0 km/h
41 19-10-2020 03:20:00 8.3 C 7.84 g/m*3 8.3 C 0 km/h
42 19-10-2020 03:25:00 8.3 C 7.84 g/m*3 8.3 C 0 km/h
43 19-10-2020 03:30:00 8.3 C 7.84 g/m*3 8.3 C 1.6 km/h
44 19-10-2020 03:35:00 8.3 C 7.84 g/m*3 8.3 C 1.6 km/h
45 19-10-2020 03:40:00 8.3 C 7.84 g/m*3 8.3 C 0 km/h
46 19-10-2020 03:45:00 8.3 C 7.84 g/m*3 8.3 C 0 km/h
47 19-10-2020 03:50:00 8.3 C 7.84 g/m*3 8.3 C 0 km/h
48 19-10-2020 03:55:00 8.3 C 7.84 g/m*3 8.3 C 0 km/h
49 19-10-2020 04:00:00 8.2 C 7.87 g/m*3 8.2 C 0 km/h
50 19-10-2020 04:05:00 8.2 C 7.87 g/m*3 8.2 C 0 km/h
Sensor: Nr:Datum:Temp:Abs-Feuchte:Windchill:Wind:
Aussen-T/F 51 19-10-2020 04:10:00 8.2 C 7.87 g/m*3 8.2 C 0 km/h
52 19-10-2020 04:15:00 8.2 C 7.87 g/m*3 8.2 C 0 km/h
53 19-10-2020 04:20:00 8.2 C 7.87 g/m*3 8.2 C 0 km/h
54 19-10-2020 04:25:00 8.2 C 7.87 g/m*3 8.2 C 0 km/h
55 19-10-2020 04:30:00 8.2 C 7.87 g/m*3 8.2 C 3.2 km/h
56 19-10-2020 04:35:00 8.2 C 7.87 g/m*3 8.2 C 4.8 km/h
57 19-10-2020 04:40:00 8.3 C 7.92 g/m*3 8.3 C 1.6 km/h
58 19-10-2020 04:45:00 8.3 C 7.92 g/m*3 8.3 C 0 km/h
59 19-10-2020 04:50:00 8.3 C 7.92 g/m*3 8.3 C 0 km/h
60 19-10-2020 04:55:00 8.3 C 7.92 g/m*3 8.3 C 1.6 km/h
61 19-10-2020 05:00:00 8.2 C 7.87 g/m*3 8.2 C 0 km/h
62 19-10-2020 05:05:00 8.2 C 7.87 g/m*3 8.2 C 0 km/h
63 19-10-2020 05:10:00 8.2 C 7.87 g/m*3 8.2 C 0 km/h
64 19-10-2020 05:15:00 8.2 C 7.87 g/m*3 8.2 C 0 km/h
65 19-10-2020 05:20:00 8.2 C 7.87 g/m*3 8.2 C 0 km/h
66 19-10-2020 05:25:00 8.2 C 7.87 g/m*3 8.2 C 3.2 km/h
67 19-10-2020 05:30:00 8.2 C 7.87 g/m*3 8.2 C 3.2 km/h
68 19-10-2020 05:35:00 8.2 C 7.87 g/m*3 8.2 C 3.2 km/h
69 19-10-2020 05:40:00 8.2 C 7.87 g/m*3 8.2 C 0 km/h
70 19-10-2020 05:45:00 8.2 C 7.87 g/m*3 8.2 C 0 km/h
71 19-10-2020 05:50:00 8.1 C 7.82 g/m*3 8.1 C 0 km/h
72 19-10-2020 05:55:00 8.1 C 7.82 g/m*3 8.1 C 0 km/h
73 19-10-2020 06:00:00 8 C 7.77 g/m*3 8 C 0 km/h
74 19-10-2020 06:05:00 7.9 C 7.72 g/m*3 7.9 C 1.6 km/h
75 19-10-2020 06:10:00 7.8 C 7.67 g/m*3 7.8 C 0 km/h
Sensor: Nr:Datum:Temp:Abs-Feuchte:Windchill:Wind:
Aussen-T/F 76 19-10-2020 06:15:00 7.8 C 7.67 g/m*3 7.8 C 0 km/h
77 19-10-2020 06:20:00 7.7 C 7.62 g/m*3 7.7 C 3.2 km/h
78 19-10-2020 06:25:00 7.7 C 7.62 g/m*3 7.7 C 3.2 km/h
79 19-10-2020 06:30:00 7.7 C 7.62 g/m*3 7.7 C 0 km/h
80 19-10-2020 06:35:00 7.6 C 7.57 g/m*3 7.6 C 0 km/h
81 19-10-2020 06:40:00 7.6 C 7.57 g/m*3 7.6 C 3.2 km/h
82 19-10-2020 06:45:00 7.6 C 7.57 g/m*3 7.6 C 3.2 km/h
83 19-10-2020 06:50:00 7.6 C 7.57 g/m*3 7.6 C 0 km/h
84 19-10-2020 06:55:00 7.5 C 7.52 g/m*3 7.5 C 0 km/h
85 19-10-2020 07:00:00 7.5 C 7.6 g/m*3 7.5 C 0 km/h
86 19-10-2020 07:05:00 7.4 C 7.48 g/m*3 7.4 C 0 km/h
87 19-10-2020 07:10:00 7.4 C 7.48 g/m*3 7.4 C 0 km/h
88 19-10-2020 07:15:00 7.4 C 7.48 g/m*3 7.4 C 0 km/h
89 19-10-2020 07:20:00 7.4 C 7.55 g/m*3 7.4 C 0 km/h
90 19-10-2020 07:25:00 7.4 C 7.55 g/m*3 7.4 C 0 km/h
91 19-10-2020 07:30:00 7.4 C 7.55 g/m*3 7.4 C 0 km/h
92 19-10-2020 07:35:00 7.4 C 7.55 g/m*3 7.4 C 0 km/h
93 19-10-2020 07:40:00 7.4 C 7.55 g/m*3 7.4 C 0 km/h
94 19-10-2020 07:45:00 7.4 C 7.55 g/m*3 7.4 C 0 km/h
95 19-10-2020 07:50:00 7.4 C 7.55 g/m*3 7.4 C 0 km/h
96 19-10-2020 07:55:00 7.4 C 7.55 g/m*3 7.4 C 0 km/h
97 19-10-2020 08:00:00 7.4 C 7.55 g/m*3 7.4 C 0 km/h
98 19-10-2020 08:05:00 7.3 C 7.51 g/m*3 7.3 C 0 km/h
99 19-10-2020 08:10:00 7.4 C 7.55 g/m*3 7.4 C 0 km/h
100 19-10-2020 08:15:00 7.4 C 7.55 g/m*3 7.4 C 0 km/h
Sensor: Nr:Datum:Temp:Abs-Feuchte:Windchill:Wind:
Aussen-T/F 101 19-10-2020 08:20:00 7.4 C 7.55 g/m*3 7.4 C 0 km/h
102 19-10-2020 08:25:00 7.4 C 7.55 g/m*3 7.4 C 0 km/h
103 19-10-2020 08:30:00 7.4 C 7.55 g/m*3 7.4 C 0 km/h
104 19-10-2020 08:35:00 7.4 C 7.55 g/m*3 7.4 C 0 km/h
105 19-10-2020 08:40:00 7.5 C 7.6 g/m*3 7.5 C 0 km/h
106 19-10-2020 08:45:00 7.6 C 7.65 g/m*3 7.6 C 0 km/h
107 19-10-2020 08:50:00 7.6 C 7.73 g/m*3 7.6 C 0 km/h
108 19-10-2020 08:55:00 7.7 C 7.78 g/m*3 7.7 C 0 km/h
109 19-10-2020 09:00:00 7.7 C 7.78 g/m*3 7.7 C 0 km/h
110 19-10-2020 09:05:00 7.8 C 7.83 g/m*3 7.8 C 0 km/h
111 19-10-2020 09:10:00 7.8 C 7.83 g/m*3 7.8 C 0 km/h
112 19-10-2020 09:15:00 7.9 C 7.89 g/m*3 7.9 C 0 km/h
113 19-10-2020 09:20:00 8.1 C 7.99 g/m*3 8.1 C 0 km/h
114 19-10-2020 09:25:00 8.1 C 7.99 g/m*3 8.1 C 0 km/h
115 19-10-2020 09:30:00 8.2 C 8.04 g/m*3 8.2 C 0 km/h
116 19-10-2020 09:35:00 8.3 C 8.09 g/m*3 8.3 C 0 km/h
117 19-10-2020 09:40:00 8.3 C 8.01 g/m*3 8.3 C 0 km/h
118 19-10-2020 09:45:00 8.3 C 8.01 g/m*3 8.3 C 0 km/h
119 19-10-2020 09:50:00 8.3 C 8.01 g/m*3 8.3 C 0 km/h
120 19-10-2020 09:55:00 8.3 C 8.01 g/m*3 8.3 C 0 km/h
121 19-10-2020 10:00:00 8.2 C 7.96 g/m*3 8.2 C 0 km/h
122 19-10-2020 10:05:00 8.1 C 7.9 g/m*3 8.1 C 0 km/h
123 19-10-2020 10:10:00 7.9 C 7.8 g/m*3 7.9 C 0 km/h
124 19-10-2020 10:15:00 7.8 C 7.75 g/m*3 7.8 C 0 km/h
125 19-10-2020 10:20:00 7.8 C 7.75 g/m*3 7.8 C 0 km/h
Sensor: Nr:Datum:Temp:Abs-Feuchte:Windchill:Wind:
Aussen-T/F 126 19-10-2020 10:25:00 7.7 C 7.7 g/m*3 7.7 C 3.2 km/h
127 19-10-2020 10:30:00 7.7 C 7.7 g/m*3 7.7 C 4.8 km/h
128 19-10-2020 10:35:00 7.7 C 7.7 g/m*3 7.7 C 4.8 km/h
129 19-10-2020 10:40:00 7.7 C 7.7 g/m*3 7.7 C 3.2 km/h
130 19-10-2020 10:45:00 7.8 C 7.75 g/m*3 7.8 C 0 km/h
131 19-10-2020 10:50:00 7.8 C 7.75 g/m*3 7.8 C 0 km/h
132 19-10-2020 10:55:00 7.8 C 7.75 g/m*3 7.8 C 0 km/h
133 19-10-2020 11:00:00 7.9 C 7.8 g/m*3 7.9 C 3.2 km/h
134 19-10-2020 11:05:00 8 C 7.85 g/m*3 8 C 3.2 km/h
135 19-10-2020 11:10:00 8.1 C 7.99 g/m*3 8.1 C 1.6 km/h
136 19-10-2020 11:15:00 8.2 C 8.04 g/m*3 8.2 C 3.2 km/h
137 19-10-2020 11:20:00 8.4 C 8.14 g/m*3 8.4 C 4.8 km/h
138 19-10-2020 11:25:00 8.6 C 8.25 g/m*3 8.6 C 3.2 km/h
139 19-10-2020 11:30:00 8.7 C 8.3 g/m*3 8.7 C 3.2 km/h
140 19-10-2020 11:35:00 8.8 C 8.36 g/m*3 8.8 C 3.2 km/h
141 19-10-2020 11:40:00 8.9 C 8.41 g/m*3 8.9 C 1.6 km/h
142 19-10-2020 11:45:00 9.1 C 8.52 g/m*3 9.1 C 0 km/h
143 19-10-2020 11:50:00 9.2 C 8.57 g/m*3 9.2 C 0 km/h
144 19-10-2020 11:55:00 9.3 C 8.63 g/m*3 9.3 C 0 km/h
145 19-10-2020 12:00:00 9.4 C 8.68 g/m*3 9.4 C 0 km/h
146 19-10-2020 12:05:00 9.5 C 8.74 g/m*3 9.5 C 0 km/h
147 19-10-2020 12:10:00 9.6 C 8.79 g/m*3 9.6 C 0 km/h
148 19-10-2020 12:15:00 9.7 C 8.76 g/m*3 9.7 C 0 km/h
149 19-10-2020 12:20:00 9.7 C 8.76 g/m*3 9.7 C 0 km/h
150 19-10-2020 12:25:00 9.7 C 8.76 g/m*3 9.7 C 0 km/h
Sensor: Nr:Datum:Temp:Abs-Feuchte:Windchill:Wind:
Aussen-T/F 151 19-10-2020 12:30:00 9.9 C 8.87 g/m*3 9.9 C 0 km/h
152 19-10-2020 12:35:00 9.9 C 8.87 g/m*3 9.9 C 0 km/h
153 19-10-2020 12:40:00 10.1 C 8.98 g/m*3 10.1 C 0 km/h
154 19-10-2020 12:45:00 10.1 C 8.98 g/m*3 10.1 C 0 km/h
155 19-10-2020 12:50:00 10.2 C 9.04 g/m*3 10.2 C 0 km/h
156 19-10-2020 12:55:00 10.2 C 9.04 g/m*3 10.2 C 0 km/h
157 19-10-2020 13:00:00 10.2 C 8.95 g/m*3 10.2 C 0 km/h
158 19-10-2020 13:05:00 10.3 C 9 g/m*3 10.3 C 0 km/h
159 19-10-2020 13:10:00 10.3 C 9 g/m*3 10.3 C 0 km/h
160 19-10-2020 13:15:00 10.3 C 9 g/m*3 10.3 C 3.2 km/h
161 19-10-2020 13:20:00 10.3 C 9 g/m*3 10.3 C 3.2 km/h
162 19-10-2020 13:25:00 10.4 C 9.06 g/m*3 10.4 C 3.2 km/h
163 19-10-2020 13:30:00 10.4 C 9.06 g/m*3 10.4 C 1.6 km/h
164 19-10-2020 13:35:00 10.6 C 9.17 g/m*3 10.6 C 1.6 km/h
165 19-10-2020 13:40:00 10.7 C 9.23 g/m*3 10.7 C 1.6 km/h
166 19-10-2020 13:45:00 10.8 C 9.29 g/m*3 10.8 C 1.6 km/h
167 19-10-2020 13:50:00 11 C 9.41 g/m*3 11 C 0 km/h
168 19-10-2020 13:55:00 11.1 C 9.47 g/m*3 11.1 C 0 km/h
169 19-10-2020 14:00:00 11.3 C 9.59 g/m*3 11.3 C 0 km/h
170 19-10-2020 14:05:00 11.4 C 9.55 g/m*3 11.4 C 0 km/h
171 19-10-2020 14:10:00 11.6 C 9.67 g/m*3 11.6 C 0 km/h
172 19-10-2020 14:15:00 11.6 C 9.56 g/m*3 11.6 C 0 km/h
173 19-10-2020 14:20:00 11.8 C 9.79 g/m*3 11.8 C 0 km/h
174 19-10-2020 14:25:00 11.9 C 9.74 g/m*3 11.9 C 0 km/h
175 19-10-2020 14:30:00 12 C 9.59 g/m*3 12 C 0 km/h
Sensor: Nr:Datum:Temp:Abs-Feuchte:Windchill:Wind:
Aussen-T/F 176 19-10-2020 14:35:00 12.2 C 9.82 g/m*3 12.2 C 0 km/h
177 19-10-2020 14:40:00 12.3 C 9.77 g/m*3 12.3 C 0 km/h
178 19-10-2020 14:45:00 12.3 C 9.56 g/m*3 12.3 C 0 km/h
179 19-10-2020 14:50:00 12.4 C 9.51 g/m*3 12.4 C 0 km/h
180 19-10-2020 14:55:00 12.4 C 9.18 g/m*3 12.4 C 0 km/h
181 19-10-2020 15:00:00 12.5 C 8.91 g/m*3 12.5 C 1.6 km/h
182 19-10-2020 15:05:00 12.6 C 8.74 g/m*3 12.6 C 1.6 km/h
183 19-10-2020 15:10:00 12.7 C 8.91 g/m*3 12.7 C 1.6 km/h
184 19-10-2020 15:15:00 12.8 C 8.62 g/m*3 12.8 C 0 km/h
185 19-10-2020 15:20:00 12.8 C 8.74 g/m*3 12.8 C 0 km/h
186 19-10-2020 15:25:00 12.9 C 9.02 g/m*3 12.9 C 0 km/h
187 19-10-2020 15:30:00 13.1 C 9.36 g/m*3 13.1 C 0 km/h
188 19-10-2020 15:35:00 13.2 C 9.19 g/m*3 13.2 C 0 km/h
189 19-10-2020 15:40:00 13.1 C 8.79 g/m*3 13.1 C 0 km/h
190 19-10-2020 15:45:00 13.2 C 9.3 g/m*3 13.2 C 0 km/h
191 19-10-2020 15:50:00 13.3 C 9.59 g/m*3 13.3 C 1.6 km/h
192 19-10-2020 15:55:00 13.3 C 9.47 g/m*3 13.3 C 0 km/h
193 19-10-2020 16:00:00 13.2 C 9.53 g/m*3 13.2 C 0 km/h
194 19-10-2020 16:05:00 13.1 C 9.36 g/m*3 13.1 C 3.2 km/h
195 19-10-2020 16:10:00 12.9 C 9.24 g/m*3 12.9 C 3.2 km/h
196 19-10-2020 16:15:00 12.8 C 9.07 g/m*3 12.8 C 3.2 km/h
197 19-10-2020 16:20:00 12.6 C 8.96 g/m*3 12.6 C 4.8 km/h
198 19-10-2020 16:25:00 12.4 C 8.85 g/m*3 12.4 C 3.2 km/h
199 19-10-2020 16:30:00 12.3 C 8.9 g/m*3 12.3 C 3.2 km/h
200 19-10-2020 16:35:00 12.3 C 8.9 g/m*3 12.3 C 4.8 km/h
Sensor: Nr:Datum:Temp:Abs-Feuchte:Windchill:Wind:
Aussen-T/F 201 19-10-2020 16:40:00 12.2 C 8.85 g/m*3 12.2 C 4.8 km/h
202 19-10-2020 16:45:00 12.2 C 8.96 g/m*3 12.2 C 4.8 km/h
203 19-10-2020 16:50:00 12.2 C 9.06 g/m*3 12.2 C 3.2 km/h
204 19-10-2020 16:55:00 12.2 C 9.06 g/m*3 12.2 C 4.8 km/h
205 19-10-2020 17:00:00 12.1 C 8.79 g/m*3 12.1 C 6.4 km/h
206 19-10-2020 17:05:00 12.1 C 8.79 g/m*3 12.1 C 6.4 km/h
207 19-10-2020 17:10:00 11.9 C 8.68 g/m*3 11.9 C 4.8 km/h
208 19-10-2020 17:15:00 11.7 C 8.58 g/m*3 11.7 C 4.8 km/h
209 19-10-2020 17:20:00 11.3 C 8.26 g/m*3 11.3 C 4.8 km/h
210 19-10-2020 17:25:00 11 C 8.11 g/m*3 10.52 C 6.4 km/h
211 19-10-2020 17:30:00 10.7 C 8.05 g/m*3 10.18 C 6.4 km/h
212 19-10-2020 17:35:00 10.5 C 8.05 g/m*3 9.95 C 6.4 km/h
213 19-10-2020 17:40:00 10.3 C 8.04 g/m*3 9.34 C 8.1 km/h
214 19-10-2020 17:45:00 10.1 C 7.94 g/m*3 9.48 C 6.4 km/h
215 19-10-2020 17:50:00 9.9 C 7.84 g/m*3 9.9 C 4.8 km/h
216 19-10-2020 17:55:00 9.7 C 7.84 g/m*3 9.02 C 6.4 km/h
217 19-10-2020 18:00:00 9.5 C 7.74 g/m*3 9.5 C 4.8 km/h
218 19-10-2020 18:05:00 9.3 C 7.73 g/m*3 9.3 C 4.8 km/h
219 19-10-2020 18:10:00 9.2 C 7.68 g/m*3 9.2 C 4.8 km/h
220 19-10-2020 18:15:00 9 C 7.58 g/m*3 9 C 4.8 km/h
221 19-10-2020 18:20:00 8.8 C 7.57 g/m*3 8.8 C 4.8 km/h
222 19-10-2020 18:25:00 8.7 C 7.61 g/m*3 8.7 C 3.2 km/h
223 19-10-2020 18:30:00 8.5 C 7.51 g/m*3 8.5 C 4.8 km/h
224 19-10-2020 18:35:00 8.3 C 7.42 g/m*3 8.3 C 4.8 km/h
225 19-10-2020 18:40:00 8.2 C 7.37 g/m*3 8.2 C 4.8 km/h
Sensor: Nr:Datum:Temp:Abs-Feuchte:Windchill:Wind:
Aussen-T/F 226 19-10-2020 18:45:00 8.1 C 7.41 g/m*3 7.17 C 6.4 km/h
227 19-10-2020 18:50:00 7.9 C 7.31 g/m*3 6.94 C 6.4 km/h
228 19-10-2020 18:55:00 7.8 C 7.26 g/m*3 7.8 C 4.8 km/h
229 19-10-2020 19:00:00 7.7 C 7.3 g/m*3 7.7 C 4.8 km/h
230 19-10-2020 19:05:00 7.7 C 7.3 g/m*3 7.7 C 4.8 km/h
231 19-10-2020 19:10:00 7.6 C 7.25 g/m*3 7.6 C 4.8 km/h
232 19-10-2020 19:15:00 7.6 C 7.25 g/m*3 6.6 C 6.4 km/h
233 19-10-2020 19:20:00 7.5 C 7.28 g/m*3 6.48 C 6.4 km/h
234 19-10-2020 19:25:00 7.4 C 7.24 g/m*3 6.37 C 6.4 km/h
235 19-10-2020 19:30:00 7.3 C 7.19 g/m*3 7.3 C 4.8 km/h
236 19-10-2020 19:35:00 7.3 C 7.19 g/m*3 6.25 C 6.4 km/h
237 19-10-2020 19:40:00 7.2 C 7.14 g/m*3 7.2 C 4.8 km/h
238 19-10-2020 19:45:00 7.2 C 7.14 g/m*3 7.2 C 4.8 km/h
239 19-10-2020 19:50:00 7.1 C 7.1 g/m*3 7.1 C 3.2 km/h
240 19-10-2020 19:55:00 7 C 7.05 g/m*3 7 C 4.8 km/h
241 19-10-2020 20:00:00 6.9 C 7.01 g/m*3 6.9 C 4.8 km/h
242 19-10-2020 20:05:00 6.9 C 7.01 g/m*3 6.9 C 4.8 km/h
243 19-10-2020 20:10:00 6.8 C 6.96 g/m*3 5.67 C 6.4 km/h
244 19-10-2020 20:15:00 6.8 C 6.96 g/m*3 6.8 C 4.8 km/h
245 19-10-2020 20:20:00 6.7 C 6.91 g/m*3 6.7 C 4.8 km/h
246 19-10-2020 20:25:00 6.7 C 6.91 g/m*3 5.56 C 6.4 km/h
247 19-10-2020 20:30:00 6.7 C 6.91 g/m*3 5.56 C 6.4 km/h
248 19-10-2020 20:35:00 6.7 C 6.91 g/m*3 5.56 C 6.4 km/h
249 19-10-2020 20:40:00 6.7 C 6.91 g/m*3 5.11 C 8.1 km/h
250 19-10-2020 20:45:00 6.7 C 6.99 g/m*3 5.56 C 6.4 km/h
Sensor: Nr:Datum:Temp:Abs-Feuchte:Windchill:Wind:
Aussen-T/F 251 19-10-2020 20:50:00 6.7 C 6.99 g/m*3 5.56 C 6.4 km/h
252 19-10-2020 20:55:00 6.7 C 6.99 g/m*3 5.56 C 6.4 km/h
253 19-10-2020 21:00:00 6.6 C 6.95 g/m*3 6.6 C 4.8 km/h
254 19-10-2020 21:05:00 6.6 C 6.95 g/m*3 6.6 C 4.8 km/h
255 19-10-2020 21:10:00 6.6 C 6.95 g/m*3 5.44 C 6.4 km/h
256 19-10-2020 21:15:00 6.6 C 6.95 g/m*3 5.44 C 6.4 km/h
257 19-10-2020 21:20:00 6.6 C 6.95 g/m*3 6.6 C 4.8 km/h
258 19-10-2020 21:25:00 6.5 C 6.9 g/m*3 6.5 C 4.8 km/h
259 19-10-2020 21:30:00 6.4 C 6.85 g/m*3 5.21 C 6.4 km/h
260 19-10-2020 21:35:00 6.4 C 6.85 g/m*3 6.4 C 3.2 km/h
261 19-10-2020 21:40:00 6.3 C 6.81 g/m*3 6.3 C 4.8 km/h
262 19-10-2020 21:45:00 6.3 C 6.81 g/m*3 6.3 C 4.8 km/h
263 19-10-2020 21:50:00 6.2 C 6.77 g/m*3 6.2 C 4.8 km/h
264 19-10-2020 21:55:00 6.2 C 6.77 g/m*3 6.2 C 4.8 km/h
265 19-10-2020 22:00:00 6.1 C 6.72 g/m*3 6.1 C 3.2 km/h
266 19-10-2020 22:05:00 6.1 C 6.72 g/m*3 6.1 C 0 km/h
267 19-10-2020 22:10:00 6 C 6.68 g/m*3 6 C 0 km/h
268 19-10-2020 22:15:00 5.9 C 6.63 g/m*3 5.9 C 0 km/h
269 19-10-2020 22:20:00 5.8 C 6.59 g/m*3 5.8 C 0 km/h
270 19-10-2020 22:25:00 5.8 C 6.66 g/m*3 5.8 C 0 km/h
271 19-10-2020 22:30:00 5.7 C 6.62 g/m*3 5.7 C 0 km/h
272 19-10-2020 22:35:00 5.7 C 6.62 g/m*3 5.7 C 0 km/h
273 19-10-2020 22:40:00 5.6 C 6.57 g/m*3 5.6 C 0 km/h
274 19-10-2020 22:45:00 5.6 C 6.57 g/m*3 5.6 C 0 km/h
275 19-10-2020 22:50:00 5.5 C 6.53 g/m*3 5.5 C 0 km/h
Sensor: Nr:Datum:Temp:Abs-Feuchte:Windchill:Wind:
Aussen-T/F 276 19-10-2020 22:55:00 5.4 C 6.49 g/m*3 5.4 C 0 km/h
277 19-10-2020 23:00:00 5.4 C 6.49 g/m*3 5.4 C 0 km/h
278 19-10-2020 23:05:00 5.3 C 6.45 g/m*3 5.3 C 0 km/h
279 19-10-2020 23:10:00 5.3 C 6.45 g/m*3 5.3 C 0 km/h
280 19-10-2020 23:15:00 5.3 C 6.52 g/m*3 5.3 C 0 km/h
281 19-10-2020 23:20:00 5.3 C 6.52 g/m*3 5.3 C 0 km/h
282 19-10-2020 23:25:00 5.3 C 6.52 g/m*3 5.3 C 0 km/h
283 19-10-2020 23:30:00 5.3 C 6.52 g/m*3 5.3 C 0 km/h
284 19-10-2020 23:35:00 5.2 C 6.47 g/m*3 5.2 C 4.8 km/h
285 19-10-2020 23:40:00 5.3 C 6.52 g/m*3 5.3 C 3.2 km/h
286 19-10-2020 23:45:00 5.3 C 6.52 g/m*3 5.3 C 3.2 km/h
287 19-10-2020 23:50:00 5.2 C 6.47 g/m*3 5.2 C 3.2 km/h
288 19-10-2020 23:55:00 5.2 C 6.47 g/m*3 5.2 C 3.2 km/h

Legende:
   Min
   Max


Maximal/Minimal-Werte vom 19.10.2020 - 19.10.2020

Sensor Min Max Avg
Temp
(Aussen-T/F)
5.2 °C
19-10-2020  23:35:00
13.3 °C
19-10-2020  15:50:00
8.63 °C
Abs-Feuchte
(Aussen-T/F)
6.45 g/m*3
19-10-2020  23:05:00
9.82 g/m*3
19-10-2020  14:35:00
7.88 g/m*3
Windchill
(Aussen-T/F)
5.11 C
19-10-2020  20:40:00
13.3 C
19-10-2020  15:50:00
8.52 C

Die Daten stammen von einer Davis Vantage Pro 2 Wetter-Station und werden unter Linux mit der Software wview2wettercgi und aufbereitet. Alle Angaben erfolgen ohne Gewähr für ihre Vollständigkeit oder Richtigkeit.
Kontakt: Rainer Krienke krienke@uni-koblenz.de . Meine Webseiten an der Uni Koblenz oder privat.
Version: $Revision: 0.78 $